GW2731 Weather Reports


time (UTC)temp
F
wind
direction
speed
knots
gust
knots
rain 1hr
in
rain 24hr
in
rain mn
in
humidity
%
barometer
mb
20260507103853 43 139 0.0 0.0 0.00 0.00 0.00 93 1021.5
20260507103350 43 139 0.0 0.0 0.00 0.00 0.00 92 1021.5
20260507102846 43 139 0.0 0.0 0.00 0.00 0.00 92 1021.6
20260507102343 43 139 0.0 0.0 0.00 0.00 0.00 92 1021.7
20260507101839 43 139 0.0 0.0 0.00 0.00 0.00 92 1021.7
20260507101334 43 139 0.0 0.0 0.00 0.00 0.00 92 1021.5
20260507100831 43 139 0.0 0.0 0.00 0.00 0.00 91 1021.5
20260507100329 43 139 0.0 0.0 0.00 0.00 0.00 91 1021.4
20260507095827 43 139 0.0 0.0 0.00 0.00 0.00 91 1021.5
20260507095323 44 139 0.0 0.0 0.00 0.00 0.00 90 1021.5
20260507094821 44 139 0.0 0.0 0.00 0.00 0.00 89 1021.4
20260507094317 44 139 0.0 0.0 0.00 0.00 0.00 89 1021.5
20260507093814 44 138 0.0 0.0 0.00 0.00 0.00 88 1021.5
20260507093312 44 138 0.0 0.0 0.00 0.00 0.00 88 1021.5
20260507092810 45 138 0.0 0.0 0.00 0.00 0.00 87 1021.6
20260507092307 45 138 0.0 0.0 0.00 0.00 0.00 86 1021.8
20260507091803 46 138 0.0 0.0 0.00 0.00 0.00 85 1021.7
20260507091259 45 138 0.0 0.0 0.00 0.00 0.00 85 1021.8
20260507090754 45 137 0.0 0.0 0.00 0.00 0.00 86 1021.6
20260507090251 45 137 0.0 0.0 0.00 0.00 0.00 86 1021.7
20260507085748 46 137 0.0 0.0 0.00 0.00 0.00 86 1021.7
20260507085244 46 137 0.0 0.0 0.00 0.00 0.00 85 1021.9
20260507084742 45 137 0.0 0.0 0.00 0.00 0.00 85 1021.6
20260507084238 45 136 0.0 0.0 0.00 0.00 0.00 86 1021.7
20260507083735 45 131 0.0 0.0 0.00 0.00 0.00 88 1022.0
20260507083232 45 130 0.0 0.0 0.00 0.00 0.00 89 1021.6
20260507082728 45 130 0.0 0.0 0.00 0.00 0.00 89 1021.5
20260507082224 46 130 0.0 0.0 0.00 0.00 0.00 89 1021.7
20260507081721 46 129 0.0 0.0 0.00 0.00 0.00 87 1021.6
20260507081217 46 129 0.0 0.0 0.00 0.00 0.00 87 1021.6
20260507080714 46 129 0.0 0.0 0.00 0.00 0.00 87 1021.5
20260507080210 46 129 0.0 0.0 0.00 0.00 0.00 86 1021.5
20260507075705 46 129 0.0 0.0 0.00 0.00 0.00 86 1021.8
20260507075202 46 128 0.0 0.0 0.00 0.00 0.00 86 1021.7
20260507074658 47 127 0.0 0.0 0.00 0.00 0.00 85 1021.8
20260507074156 47 126 0.0 0.0 0.00 0.00 0.00 83 1021.6
20260507073653 47 124 0.0 0.0 0.00 0.00 0.00 82 1021.8
20260507073149 46 121 0.0 0.0 0.00 0.00 0.00 86 1021.6
20260507072647 46 120 0.0 0.0 0.00 0.00 0.00 85 1021.7
20260507072144 46 118 0.0 0.0 0.00 0.00 0.00 85 1021.8
20260507071642 46 117 0.0 0.0 0.00 0.00 0.00 84 1021.9
20260507071138 47 116 0.0 0.0 0.00 0.00 0.00 84 1021.9
20260507070635 47 113 0.0 0.0 0.00 0.00 0.00 83 1021.9
20260507070132 47 110 0.0 0.0 0.00 0.00 0.00 81 1022.0
20260507065628 48 109 0.0 0.0 0.00 0.00 0.00 80 1022.0
20260507065125 49 102 0.0 0.0 0.00 0.00 0.00 79 1022.0
20260507064623 49 88 0.0 0.0 0.00 0.00 0.00 78 1022.0
20260507064122 49 45 0.0 0.9 0.00 0.00 0.00 77 1022.1
20260507063618 50 40 0.9 0.9 0.00 0.00 0.00 76 1021.9
20260507063115 50 33 0.9 0.9 0.00 0.00 0.00 76 1021.9
20260507062612 50 28 0.9 1.7 0.00 0.00 0.00 76 1021.9
20260507062110 50 23 1.7 1.7 0.00 0.00 0.00 75 1021.9
20260507061607 50 22 1.7 1.7 0.00 0.00 0.00 75 1022.0
20260507061105 50 18 0.0 1.7 0.00 0.00 0.00 74 1021.7
20260507060603 50 14 0.0 0.9 0.00 0.00 0.00 75 1021.6
20260507060059 50 357 1.7 3.5 0.00 0.00 0.00 74 1021.6
20260507055554 52 20 1.7 2.6 0.00 0.00 0.00 69 1021.5
20260507055051 52 65 1.7 2.6 0.00 0.00 0.00 67 1021.6
20260507054547 52 88 1.7 1.7 0.00 0.00 0.00 66 1021.6
20260507054044 52 102 0.9 1.7 0.00 0.00 0.00 66 1021.6
20260507053542 52 107 0.0 0.0 0.00 0.00 0.00 67 1021.5
20260507053041 52 99 0.9 1.7 0.00 0.00 0.00 67 1021.5
20260507052538 52 99 0.9 1.7 0.00 0.00 0.00 67 1021.5
20260507052034 52 95 0.9 1.7 0.00 0.00 0.00 67 1021.6
20260507051532 52 78 0.9 2.6 0.00 0.00 0.00 67 1021.4
20260507051029 52 93 1.7 1.7 0.00 0.00 0.00 67 1021.4
20260507050525 52 55 1.7 2.6 0.00 0.00 0.00 67 1021.4
20260507050022 52 90 0.9 2.6 0.00 0.00 0.00 67 1021.3
20260507045518 52 105 0.9 1.7 0.00 0.00 0.00 67 1021.5
20260507045016 53 106 1.7 1.7 0.00 0.00 0.00 67 1021.5
20260507044512 52 102 1.7 1.7 0.00 0.00 0.00 67 1021.6
20260507044009 53 94 0.9 1.7 0.00 0.00 0.00 67 1021.5
20260507043505 53 86 0.9 2.6 0.00 0.00 0.00 67 1021.3
20260507043002 53 104 0.0 1.7 0.00 0.00 0.00 67 1021.4
20260507042458 53 84 0.9 1.7 0.00 0.00 0.00 67 1021.3
20260507041954 53 43 0.9 1.7 0.00 0.00 0.00 66 1021.5
20260507041451 53 21 1.7 3.5 0.00 0.00 0.00 66 1021.4
20260507040948 54 11 2.6 3.5 0.00 0.00 0.00 66 1021.3
20260507040444 54 358 1.7 5.2 0.00 0.00 0.00 66 1021.4
20260507035940 54 15 1.7 3.5 0.00 0.00 0.00 66 1021.4
20260507035437 54 20 0.9 3.5 0.00 0.00 0.00 66 1021.3
20260507034933 54 11 2.6 3.5 0.00 0.00 0.00 65 1021.3
20260507034430 54 8 2.6 3.5 0.00 0.00 0.00 65 1021.4
20260507033928 54 357 2.6 3.5 0.00 0.00 0.00 65 1021.3
20260507033426 55 8 3.5 5.2 0.00 0.00 0.00 64 1021.2
20260507032922 55 3 4.3 5.2 0.00 0.00 0.00 64 1021.2
20260507032420 55 8 3.5 5.2 0.00 0.00 0.00 64 1020.9
20260507031915 55 15 2.6 5.2 0.00 0.00 0.00 64 1021.1
20260507031412 55 358 3.5 5.2 0.00 0.00 0.00 64 1021.0
20260507030909 55 6 3.5 5.2 0.00 0.00 0.00 64 1021.1
20260507030406 55 19 1.7 3.5 0.00 0.00 0.00 65 1021.2
20260507025903 55 337 2.6 2.6 0.00 0.00 0.00 64 1021.0
20260507025401 56 9 2.6 5.2 0.00 0.00 0.00 62 1021.0
20260507024858 56 21 1.7 3.5 0.00 0.00 0.00 62 1020.7
20260507024355 56 16 3.5 5.2 0.00 0.00 0.00 62 1020.6
20260507023851 56 17 4.3 5.2 0.00 0.00 0.00 62 1020.7
20260507023348 56 35 1.7 2.6 0.00 0.00 0.00 62 1020.6
20260507022845 56 23 2.6 2.6 0.00 0.00 0.00 62 1020.5
20260507022342 57 22 2.6 3.5 0.00 0.00 0.00 61 1020.4
20260507021838 57 13 2.6 5.2 0.00 0.00 0.00 61 1020.4
20260507021333 57 5 2.6 5.2 0.00 0.00 0.00 61 1020.3
20260507020831 57 7 2.6 5.2 0.00 0.00 0.00 61 1020.3
20260507020322 57 33 3.5 3.5 0.00 0.00 0.00 61 1020.3
20260507015819 57 6 1.7 2.6 0.00 0.00 0.00 61 1020.2
20260507015317 57 357 2.6 2.6 0.00 0.00 0.00 61 1020.1
20260507014814 57 12 2.6 3.5 0.00 0.00 0.00 60 1020.0
20260507014310 57 9 0.9 2.6 0.00 0.00 0.00 60 1020.0
20260507013806 58 5 1.7 2.6 0.00 0.00 0.00 59 1020.1
20260507013304 58 24 2.6 2.6 0.00 0.00 0.00 58 1020.0
20260507012801 58 15 1.7 2.6 0.00 0.00 0.00 58 1019.6
20260507012257 58 64 0.9 2.6 0.00 0.00 0.00 58 1019.6
20260507011754 59 49 1.7 2.6 0.00 0.00 0.00 58 1019.7
20260507011251 59 52 1.7 2.6 0.00 0.00 0.00 57 1019.5
20260507010750 59 58 1.7 2.6 0.00 0.00 0.00 56 1019.5
20260507010246 59 47 1.7 3.5 0.00 0.00 0.00 56 1019.4
20260507005744 60 59 1.7 2.6 0.00 0.00 0.00 55 1019.5
20260507005240 60 51 1.7 3.5 0.00 0.00 0.00 54 1019.5
20260507004737 60 35 1.7 3.5 0.00 0.00 0.00 54 1019.3
20260507004235 61 83 1.7 5.2 0.00 0.00 0.00 54 1019.5
20260507003731 61 63 1.7 3.5 0.00 0.00 0.00 54 1019.4
20260507003226 61 37 1.7 2.6 0.00 0.00 0.00 54 1019.4
20260507002722 61 90 3.5 6.1 0.00 0.00 0.00 53 1019.2
20260507002219 61 37 2.6 6.1 0.00 0.00 0.00 53 1019.2
20260507001715 61 351 3.5 6.1 0.00 0.00 0.00 53 1019.1
20260507001213 61 45 1.7 5.2 0.00 0.00 0.00 55 1019.3
20260507000709 61 69 1.7 5.2 0.00 0.00 0.00 55 1019.0
20260507000205 61 17 3.5 6.1 0.00 0.00 0.00 54 1019.2
20260506235702 61 43 2.6 3.5 0.00 0.00 0.00 54 1019.0
20260506235157 61 55 1.7 5.2 0.00 0.00 0.00 53 1019.4
20260506234654 62 24 4.3 7.8 0.00 0.00 0.00 53 1019.3
20260506234151 62 56 3.5 7.8 0.00 0.00 0.00 52 1019.1
20260506233649 63 86 2.6 9.6 0.00 0.00 0.00 52 1019.1
20260506233145 63 99 1.7 3.5 0.00 0.00 0.00 50 1019.2
20260506232642 63 45 4.3 7.0 0.00 0.00 0.00 51 1019.0
20260506232137 64 7 5.2 7.8 0.00 0.00 0.00 50 1019.1
20260506231634 63 18 2.6 7.0 0.00 0.00 0.00 52 1019.0
20260506231133 63 37 2.6 7.0 0.00 0.00 0.00 52 1019.0
20260506230629 63 46 2.6 7.8 0.00 0.00 0.00 53 1019.1
20260506230126 64 37 3.5 7.8 0.00 0.00 0.00 51 1019.0
20260506225623 63 99 3.5 8.7 0.00 0.00 0.00 51 1018.9
20260506225119 63 17 3.5 7.8 0.00 0.00 0.00 50 1018.8
20260506224616 64 22 3.5 8.7 0.00 0.00 0.00 49 1018.8
20260506224113 62 36 4.3 7.8 0.00 0.00 0.00 51 1018.7
20260506223609 62 32 5.2 7.8 0.00 0.00 0.00 53 1018.7
20260506223105 62 14 4.3 6.1 0.00 0.00 0.00 52 1018.6
20260506222602 62 50 4.3 9.6 0.00 0.00 0.00 51 1018.4
20260506222058 63 40 3.5 9.6 0.00 0.00 0.00 52 1018.4
20260506221556 63 38 7.8 8.7 0.00 0.00 0.00 51 1018.5
20260506221054 63 46 5.2 11.3 0.00 0.00 0.00 51 1018.3
20260506220550 62 22 5.2 7.8 0.00 0.00 0.00 51 1018.6
20260506220045 62 1 7.8 12.2 0.00 0.00 0.00 52 1018.3
20260506215543 62 76 4.3 6.1 0.00 0.00 0.00 52 1018.4
20260506215038 62 314 5.2 13.9 0.00 0.00 0.00 52 1018.2
20260506214535 63 18 7.8 8.7 0.00 0.00 0.00 52 1018.0
20260506214033 64 61 3.5 9.6 0.00 0.00 0.00 53 1018.0
20260506213530 64 45 7.8 13.9 0.00 0.00 0.00 51 1018.0
20260506213027 64 4 3.5 8.7 0.00 0.00 0.00 52 1018.2
20260506212524 64 52 5.2 9.6 0.00 0.00 0.00 52 1018.2
20260506212019 64 21 9.6 9.6 0.00 0.00 0.00 51 1018.2
20260506211515 63 0 8.7 13.9 0.00 0.00 0.00 52 1018.2
20260506211013 61 16 5.2 9.6 0.00 0.00 0.00 55 1018.2
20260506210509 63 7 6.1 8.7 0.00 0.00 0.00 54 1018.2
20260506210006 62 7 7.0 12.2 0.00 0.00 0.00 54 1018.6
20260506205502 61 25 5.2 9.6 0.00 0.00 0.00 56 1018.5
20260506204958 62 22 5.2 8.7 0.00 0.00 0.00 56 1018.4
20260506204456 62 18 4.3 9.6 0.00 0.00 0.00 56 1018.5
20260506203953 62 79 3.5 6.1 0.00 0.00 0.00 57 1018.7
20260506203450 61 0 5.2 8.7 0.00 0.00 0.00 57 1018.7
20260506202947 61 67 0.9 5.2 0.00 0.00 0.00 58 1018.8
20260506202444 61 10 5.2 8.7 0.00 0.00 0.00 58 1019.0
20260506201940 62 40 3.5 7.8 0.00 0.00 0.00 57 1018.9
20260506201438 62 85 3.5 9.6 0.00 0.00 0.00 57 1019.1
20260506200934 61 43 2.6 6.1 0.00 0.00 0.00 56 1019.1
20260506200431 61 35 4.3 8.7 0.00 0.00 0.00 56 1019.0
20260506195927 61 73 7.0 11.3 0.00 0.00 0.00 55 1019.1
20260506195425 62 19 5.2 9.6 0.00 0.00 0.00 55 1019.1
20260506194921 62 52 2.6 6.1 0.00 0.00 0.00 56 1019.2
20260506194419 63 49 7.0 8.7 0.00 0.00 0.00 55 1019.0
20260506193915 62 337 6.1 8.7 0.00 0.00 0.00 54 1018.9
20260506193412 62 9 7.0 8.7 0.00 0.00 0.00 55 1019.1
20260506192909 63 42 5.2 13.0 0.00 0.00 0.00 54 1019.0
20260506192406 63 349 9.6 13.0 0.00 0.00 0.00 52 1019.5
20260506191903 63 31 2.6 7.0 0.00 0.00 0.00 54 1019.2
20260506191359 63 61 3.5 7.0 0.00 0.00 0.00 55 1019.5
20260506190856 61 73 3.5 6.1 0.00 0.00 0.00 56 1019.5
20260506190352 62 99 2.6 9.6 0.00 0.00 0.00 56 1019.8
20260506185849 61 76 2.6 9.6 0.00 0.00 0.00 57 1019.9
20260506185346 61 67 2.6 7.0 0.00 0.00 0.00 56 1019.6
20260506184843 60 32 6.1 9.6 0.00 0.00 0.00 56 1019.9
20260506184340 61 31 4.3 8.7 0.00 0.00 0.00 56 1019.7
20260506183838 60 22 6.1 7.8 0.00 0.00 0.00 56 1019.5
20260506183333 60 48 3.5 6.1 0.00 0.00 0.00 57 1020.0
20260506182831 59 26 4.3 7.0 0.00 0.00 0.00 57 1019.8
20260506182327 60 102 3.5 7.0 0.00 0.00 0.00 57 1019.9
20260506181825 61 88 6.1 7.8 0.00 0.00 0.00 57 1020.0
20260506181323 61 88 6.1 11.3 0.00 0.00 0.00 55 1019.8
20260506180820 61 4 6.1 8.7 0.00 0.00 0.00 55 1020.3
20260506180316 60 76 2.6 6.1 0.00 0.00 0.00 55 1020.2
20260506175812 61 21 6.1 13.0 0.00 0.00 0.00 55 1020.1
20260506175309 60 37 5.2 7.0 0.00 0.00 0.00 56 1020.2
20260506174806 60 16 5.2 11.3 0.00 0.00 0.00 59 1020.5
20260506174303 60 359 4.3 11.3 0.00 0.00 0.00 58 1020.4
20260506173801 60 340 5.2 9.6 0.00 0.00 0.00 57 1020.4
20260506173258 60 9 4.3 7.8 0.00 0.00 0.00 58 1020.4
20260506172754 60 16 2.6 7.0 0.00 0.00 0.00 60 1020.9
20260506172251 59 45 1.7 7.8 0.00 0.00 0.00 57 1020.9
20260506171749 59 67 4.3 7.8 0.00 0.00 0.00 59 1021.0
20260506171246 59 17 8.7 12.2 0.00 0.00 0.00 58 1021.2
20260506170743 59 358 6.1 8.7 0.00 0.00 0.00 58 1021.3
20260506170239 59 0 5.2 11.3 0.00 0.00 0.00 59 1021.5
20260506165738 59 342 5.2 8.7 0.00 0.00 0.00 59 1021.5
20260506165235 59 33 5.2 7.8 0.00 0.00 0.00 60 1021.6
20260506164732 59 65 5.2 7.8 0.00 0.00 0.00 59 1021.6
20260506164229 59 88 3.5 7.0 0.00 0.00 0.00 59 1021.4
20260506163726 59 337 4.3 9.6 0.00 0.00 0.00 59 1021.3
20260506163220 58 60 3.5 8.7 0.00 0.00 0.00 58 1021.2
20260506162717 59 54 5.2 7.8 0.00 0.00 0.00 58 1021.1
20260506162214 58 110 3.5 6.1 0.00 0.00 0.00 58 1020.9
20260506161712 59 40 6.1 7.8 0.00 0.00 0.00 59 1021.1
20260506161209 58 97 1.7 3.5 0.00 0.00 0.00 59 1021.1
20260506160706 57 10 3.5 6.1 0.00 0.00 0.00 61 1021.0
20260506160203 57 86 4.3 7.0 0.00 0.00 0.00 62 1020.5
20260506155701 57 97 2.6 11.3 0.00 0.00 0.00 63 1020.4
20260506155158 56 14 4.3 8.7 0.00 0.00 0.00 62 1020.6
20260506153300 55 51 5.2 9.6 0.00 0.00 0.00 64 1020.2
20260506152756 55 74 7.8 13.9 0.00 0.00 0.00 64 1020.0
20260506152254 56 106 3.5 9.6 0.00 0.00 0.00 67 1019.7
20260506151753 56 31 2.6 6.1 0.00 0.00 0.00 65 1019.7
20260506151249 55 356 7.0 9.6 0.00 0.00 0.00 68 1019.5
20260506150746 54 116 5.2 7.8 0.00 0.00 0.00 69 1019.4
20260506150243 53 88 2.6 7.0 0.00 0.00 0.00 70 1019.6
20260506145740 53 33 8.7 11.3 0.00 0.00 0.00 72 1019.6
20260506145236 53 33 4.3 7.8 0.00 0.00 0.00 72 1019.8
20260506144734 52 53 9.6 11.3 0.00 0.00 0.00 71 1019.9
20260506144231 53 21 7.8 12.2 0.00 0.00 0.00 72 1019.9
20260506143728 52 35 9.6 12.2 0.00 0.00 0.00 73 1019.6
20260506143225 52 75 4.3 9.6 0.00 0.00 0.00 73 1019.6
20260506142724 51 33 7.8 9.6 0.00 0.00 0.00 74 1019.6
20260506142222 51 80 5.2 8.7 0.00 0.00 0.00 75 1019.6
20260506141719 51 354 5.2 8.7 0.00 0.00 0.00 76 1019.6
20260506141217 51 32 6.1 9.6 0.00 0.00 0.00 75 1019.8
20260506140715 51 17 9.6 12.2 0.00 0.00 0.00 75 1019.9
20260506140212 51 44 7.8 11.3 0.00 0.00 0.00 76 1019.8
20260506135708 50 34 9.6 13.0 0.00 0.00 0.00 78 1019.6
20260506135205 50 104 7.0 8.7 0.00 0.00 0.00 79 1019.5
20260506134701 50 27 5.2 11.3 0.00 0.00 0.00 79 1019.7
20260506134157 50 41 4.3 7.8 0.00 0.00 0.00 80 1020.0
20260506133655 50 50 7.0 8.7 0.00 0.00 0.00 79 1019.6
20260506133151 50 62 4.3 9.6 0.00 0.00 0.00 80 1019.5
20260506132649 50 78 4.3 11.3 0.00 0.00 0.00 80 1019.7
20260506132146 50 52 7.0 13.9 0.00 0.00 0.00 80 1019.7
20260506131643 50 37 4.3 7.0 0.00 0.00 0.00 80 1020.0
20260506131139 49 12 5.2 8.7 0.00 0.00 0.00 81 1019.7
20260506130636 49 45 3.5 13.9 0.00 0.00 0.00 81 1019.5
20260506130134 49 56 9.6 12.2 0.00 0.00 0.00 81 1019.6
20260506125632 49 27 7.0 11.3 0.00 0.00 0.00 82 1019.6
20260506125129 49 15 3.5 7.0 0.00 0.00 0.00 84 1019.6
20260506124627 49 341 5.2 11.3 0.00 0.00 0.00 84 1019.8
20260506124124 49 26 7.0 9.6 0.00 0.00 0.00 84 1019.6
20260506123622 49 9 7.0 13.0 0.00 0.00 0.00 84 1019.4
20260506123121 49 8 8.7 11.3 0.00 0.00 0.00 84 1019.5
20260506122617 49 4 6.1 8.7 0.00 0.00 0.00 84 1019.5
20260506122115 49 35 5.2 9.6 0.00 0.00 0.00 83 1019.2
20260506121612 49 15 6.1 8.7 0.00 0.00 0.00 83 1019.1
20260506121108 49 325 7.0 13.0 0.00 0.00 0.00 83 1019.3
20260506120606 49 358 5.2 7.0 0.00 0.00 0.00 83 1019.0
20260506120103 49 33 5.2 9.6 0.00 0.00 0.00 83 1019.1
20260506115602 49 5 4.3 6.1 0.00 0.00 0.00 82 1019.1
20260506115100 49 18 4.3 13.0 0.00 0.00 0.00 82 1018.9
20260506114557 49 354 5.2 8.7 0.00 0.00 0.00 82 1018.9
20260506114055 49 37 9.6 13.9 0.00 0.00 0.00 81 1018.9
20260506113552 49 24 5.2 13.9 0.00 0.00 0.00 81 1018.8
20260506113049 49 356 3.5 12.2 0.00 0.00 0.00 81 1018.8
20260506112546 49 43 5.2 13.9 0.00 0.00 0.00 81 1018.8
20260506112043 49 10 10.4 13.9 0.00 0.00 0.00 80 1018.9
20260506111541 49 16 7.8 9.6 0.00 0.00 0.00 80 1018.8
20260506111038 49 354 5.2 8.7 0.00 0.00 0.00 80 1018.6
20260506110536 49 15 3.5 7.8 0.00 0.00 0.00 80 1018.5
20260506110033 49 52 3.5 7.0 0.00 0.00 0.00 80 1018.3
20260506105529 50 30 4.3 7.8 0.00 0.00 0.00 80 1018.4
20260506105026 50 4 7.0 11.3 0.00 0.00 0.00 80 1018.3
20260506104524 50 1 4.3 8.7 0.00 0.00 0.00 80 1018.2